Voltar ao catálogo

STARLINK-36463

AtivoComunicaçõesVLEO
NORAD 67315·PAYLOAD·🇺🇸 United States

Lançado Jan 4, 2026 de Cape Canaveral Space Force Station

Loading…

Próximas Passagens (próximas 24 horas)

TLE

AtualizadoSource: CelesTrak SupGP

Época: Sep 14, 2026, 21:04 UTC

1 67315C 26002L   26257.87826389 -.00015611  00000+0 -56533-3 0  2572
2 67315  43.0026 336.6073 0001377 281.0949 143.1620 15.27592210    10

Acompanhe STARLINK-36463 em tempo real com AllMySat

Download on the App Store